| time (UTC) | temp F | wind direction | speed MPH | gust MPH | rain 1hr in | rain 24hr in | rain mn in | humidity % | barometer mb |
| 20260507171606 | 62 | 224 | 3.0 | 10.0 | 0.00 | 0.28 | 0.26 | 35 | 1009.7 |
| 20260507170022 | 62 | 10 | 5.0 | 14.0 | 0.00 | 0.30 | 0.26 | 34 | 1009.8 |
| 20260507164533 | 61 | 13 | 2.0 | 12.0 | 0.00 | 0.30 | 0.26 | 35 | 1010.0 |
| 20260507163050 | 62 | 338 | 3.0 | 8.0 | 0.00 | 0.30 | 0.26 | 36 | 1010.2 |
| 20260507161505 | 61 | 1 | 1.0 | 7.0 | 0.00 | 0.30 | 0.26 | 39 | 1010.3 |
| 20260507160310 | 61 | 323 | 3.0 | 8.0 | 0.00 | 0.30 | 0.26 | 38 | 1010.6 |
| 20260507160021 | 61 | 11 | 3.0 | 9.0 | 0.00 | 0.30 | 0.26 | 38 | 1010.7 |
| 20260507154542 | 60 | 328 | 3.0 | 9.0 | 0.00 | 0.30 | 0.26 | 39 | 1010.8 |
| 20260507153107 | 60 | 257 | 2.0 | 9.0 | 0.00 | 0.30 | 0.26 | 44 | 1010.9 |
| 20260507151600 | 59 | 232 | 1.0 | 8.0 | 0.00 | 0.30 | 0.26 | 42 | 1011.1 |
| 20260507150054 | 59 | 316 | 4.0 | 9.0 | 0.00 | 0.30 | 0.26 | 45 | 1011.2 |
| 20260507144509 | 58 | 305 | 1.0 | 8.0 | 0.00 | 0.30 | 0.26 | 51 | 1011.3 |
| 20260507143019 | 57 | 27 | 3.0 | 6.0 | 0.00 | 0.30 | 0.26 | 53 | 1011.5 |
| 20260507141530 | 56 | 329 | 2.0 | 10.0 | 0.00 | 0.30 | 0.26 | 57 | 1011.4 |
| 20260507140314 | 56 | 317 | 3.0 | 11.0 | 0.00 | 0.30 | 0.26 | 60 | 1011.5 |
| 20260507140013 | 55 | 319 | 3.0 | 11.0 | 0.00 | 0.30 | 0.26 | 61 | 1011.5 |
| 20260507134522 | 53 | 319 | 2.0 | 8.0 | 0.00 | 0.30 | 0.26 | 63 | 1011.5 |
| 20260507133034 | 53 | 342 | 3.0 | 8.0 | 0.00 | 0.30 | 0.26 | 66 | 1011.5 |
| 20260507131540 | 53 | 288 | 0.0 | 9.0 | 0.00 | 0.30 | 0.26 | 72 | 1011.4 |
| 20260507130100 | 51 | 294 | 0.0 | 5.0 | 0.00 | 0.30 | 0.26 | 75 | 1011.5 |
| 20260507124620 | 51 | 1 | 3.0 | 7.0 | 0.00 | 0.30 | 0.26 | 75 | 1011.5 |
| 20260507123016 | 50 | 6 | 2.0 | 8.0 | 0.00 | 0.30 | 0.26 | 77 | 1011.7 |
| 20260507121539 | 50 | 328 | 2.0 | 5.0 | 0.00 | 0.30 | 0.26 | 77 | 1011.7 |
| 20260507120300 | 50 | 335 | 1.0 | 6.0 | 0.00 | 0.30 | 0.26 | 78 | 1011.7 |
| 20260507120038 | 50 | 326 | 1.0 | 4.0 | 0.00 | 0.30 | 0.26 | 79 | 1011.6 |
| 20260507114602 | 50 | 329 | 0.0 | 4.0 | 0.00 | 0.30 | 0.26 | 79 | 1011.4 |
| 20260507113009 | 50 | 312 | 1.0 | 5.0 | 0.00 | 0.30 | 0.26 | 80 | 1011.2 |
| 20260507111520 | 50 | 306 | 0.0 | 6.0 | 0.00 | 0.30 | 0.26 | 80 | 1010.9 |
| 20260507110028 | 49 | 333 | 2.0 | 6.0 | 0.00 | 0.30 | 0.26 | 80 | 1010.8 |
| 20260507104540 | 49 | 323 | 0.0 | 7.0 | 0.00 | 0.30 | 0.26 | 81 | 1010.7 |
| 20260507103105 | 49 | 255 | 1.0 | 8.0 | 0.00 | 0.30 | 0.26 | 81 | 1010.5 |
| 20260507101520 | 49 | 314 | 0.0 | 7.0 | 0.00 | 0.30 | 0.26 | 83 | 1010.4 |
| 20260507100313 | 50 | 39 | 0.0 | 4.0 | 0.01 | 0.30 | 0.26 | 84 | 1010.2 |
| 20260507100013 | 49 | 300 | 0.0 | 4.0 | 0.01 | 0.30 | 0.26 | 84 | 1010.1 |
| 20260507094522 | 49 | 238 | 1.0 | 6.0 | 0.01 | 0.30 | 0.26 | 85 | 1010.1 |
| 20260507093057 | 49 | 326 | 1.0 | 7.0 | 0.02 | 0.30 | 0.26 | 86 | 1009.9 |
| 20260507091509 | 49 | 304 | 0.0 | 5.0 | 0.03 | 0.30 | 0.26 | 87 | 1009.8 |
| 20260507090020 | 49 | 297 | 0.0 | 4.0 | 0.02 | 0.28 | 0.25 | 87 | 1009.9 |
| 20260507084545 | 49 | 304 | 0.0 | 5.0 | 0.02 | 0.28 | 0.25 | 85 | 1009.9 |
| 20260507083104 | 49 | 246 | 1.0 | 8.0 | 0.02 | 0.28 | 0.24 | 85 | 1010.2 |
| 20260507081504 | 49 | 320 | 1.0 | 8.0 | 0.02 | 0.27 | 0.23 | 84 | 1009.5 |
| 20260507080303 | 50 | 304 | 2.0 | 10.0 | 0.04 | 0.27 | 0.23 | 85 | 1010.1 |
| 20260507080004 | 49 | 328 | 2.0 | 10.0 | 0.04 | 0.27 | 0.23 | 85 | 1010.0 |
| 20260507074521 | 50 | 4 | 2.0 | 8.0 | 0.04 | 0.26 | 0.22 | 85 | 1010.2 |
| 20260507073052 | 50 | 339 | 2.0 | 9.0 | 0.06 | 0.26 | 0.22 | 85 | 1009.9 |
| 20260507071555 | 50 | 302 | 2.0 | 9.0 | 0.09 | 0.25 | 0.21 | 85 | 1010.0 |
| 20260507070012 | 51 | 224 | 1.0 | 9.0 | 0.13 | 0.23 | 0.19 | 85 | 1009.8 |
| 20260507064535 | 51 | 274 | 0.0 | 3.0 | 0.16 | 0.22 | 0.18 | 86 | 1010.0 |
| 20260507063043 | 52 | 299 | 1.0 | 4.0 | 0.16 | 0.20 | 0.16 | 85 | 1009.6 |
| 20260507061550 | 52 | 238 | 0.0 | 7.0 | 0.11 | 0.15 | 0.11 | 83 | 1009.9 |
| 20260507060310 | 53 | 312 | 1.0 | 5.0 | 0.06 | 0.10 | 0.06 | 82 | 1009.5 |
| 20260507060016 | 53 | 33 | 1.0 | 5.0 | 0.06 | 0.10 | 0.06 | 81 | 1009.1 |
| 20260507054511 | 54 | 338 | 1.0 | 8.0 | 0.01 | 0.05 | 0.01 | 75 | 1008.9 |
| 20260507053013 | 55 | 202 | 3.0 | 10.0 | 0.00 | 0.04 | 0.00 | 71 | 1009.4 |
| 20260507051521 | 56 | 210 | 1.0 | 6.0 | 0.00 | 0.04 | 0.00 | 71 | 1008.8 |
| 20260507050044 | 56 | 307 | 1.0 | 5.0 | 0.00 | 0.04 | 0.00 | 72 | 1008.9 |
| 20260507044603 | 56 | 319 | 1.0 | 3.0 | 0.00 | 0.04 | 0.00 | 72 | 1009.2 |
| 20260507043014 | 57 | 340 | 1.0 | 6.0 | 0.00 | 0.04 | 0.00 | 71 | 1009.1 |
| 20260507041528 | 57 | 299 | 2.0 | 8.0 | 0.00 | 0.04 | 0.00 | 73 | 1009.4 |
| 20260507040310 | 58 | 338 | 0.0 | 6.0 | 0.00 | 0.04 | 0.00 | 75 | 1009.5 |
| 20260507040027 | 58 | 18 | 1.0 | 6.0 | 0.00 | 0.04 | 0.04 | 75 | 1009.4 |
| 20260507034530 | 58 | 11 | 1.0 | 7.0 | 0.00 | 0.04 | 0.04 | 75 | 1009.2 |
| 20260507033034 | 59 | 8 | 2.0 | 7.0 | 0.00 | 0.04 | 0.04 | 79 | 1009.0 |
| 20260507031550 | 59 | 345 | 1.0 | 5.0 | 0.01 | 0.04 | 0.04 | 80 | 1008.7 |
| 20260507030007 | 60 | 22 | 1.0 | 6.0 | 0.01 | 0.04 | 0.04 | 78 | 1008.6 |
| 20260507024528 | 60 | 304 | 2.0 | 9.0 | 0.01 | 0.04 | 0.04 | 77 | 1008.8 |
| 20260507023046 | 62 | 330 | 5.0 | 10.0 | 0.01 | 0.04 | 0.04 | 77 | 1008.8 |
| 20260507021557 | 65 | 313 | 1.0 | 7.0 | 0.00 | 0.03 | 0.03 | 80 | 1008.8 |
| 20260507020316 | 66 | 281 | 0.0 | 6.0 | 0.00 | 0.03 | 0.03 | 79 | 1008.5 |
| 20260507020109 | 65 | 15 | 2.0 | 6.0 | 0.00 | 0.03 | 0.03 | 79 | 1008.4 |
| 20260507014609 | 66 | 20 | 1.0 | 5.0 | 0.00 | 0.03 | 0.03 | 74 | 1008.2 |
| 20260507013019 | 66 | 165 | 1.0 | 7.0 | 0.00 | 0.03 | 0.03 | 74 | 1008.0 |
| 20260507011530 | 67 | 189 | 1.0 | 3.0 | 0.00 | 0.03 | 0.03 | 74 | 1007.9 |
| 20260507010049 | 67 | 110 | 1.0 | 5.0 | 0.00 | 0.03 | 0.03 | 74 | 1007.7 |
| 20260507004551 | 67 | 150 | 0.0 | 4.0 | 0.00 | 0.03 | 0.03 | 74 | 1007.8 |
| 20260507003009 | 66 | 136 | 0.0 | 4.0 | 0.00 | 0.03 | 0.03 | 74 | 1007.8 |
| 20260507001525 | 66 | 155 | 1.0 | 3.0 | 0.00 | 0.03 | 0.03 | 74 | 1007.7 |
| 20260507000308 | 67 | 191 | 1.0 | 5.0 | 0.00 | 0.03 | 0.03 | 74 | 1007.9 |
| 20260507000028 | 66 | 224 | 1.0 | 5.0 | 0.00 | 0.03 | 0.03 | 74 | 1007.8 |
| 20260506234543 | 66 | 146 | 1.0 | 6.0 | 0.00 | 0.03 | 0.03 | 74 | 1007.6 |
| 20260506233059 | 66 | 231 | 0.0 | 4.0 | 0.00 | 0.03 | 0.03 | 74 | 1007.5 |
| 20260506231529 | 67 | 98 | 0.0 | 5.0 | 0.00 | 0.03 | 0.03 | 74 | 1007.3 |
| 20260506230039 | 66 | 201 | 1.0 | 4.0 | 0.00 | 0.03 | 0.03 | 74 | 1007.5 |
| 20260506224540 | 66 | 210 | 2.0 | 11.0 | 0.00 | 0.03 | 0.03 | 74 | 1007.5 |
| 20260506223059 | 66 | 244 | 2.0 | 6.0 | 0.00 | 0.03 | 0.03 | 74 | 1007.3 |
| 20260506221518 | 66 | 214 | 2.0 | 8.0 | 0.00 | 0.03 | 0.03 | 74 | 1007.2 |
| 20260506220309 | 67 | 191 | 2.0 | 6.0 | 0.00 | 0.03 | 0.03 | 74 | 1007.3 |
| 20260506220027 | 66 | 243 | 1.0 | 5.0 | 0.00 | 0.03 | 0.03 | 74 | 1007.2 |
| 20260506214537 | 66 | 220 | 3.0 | 8.0 | 0.00 | 0.03 | 0.03 | 74 | 1007.1 |
| 20260506213102 | 66 | 252 | 4.0 | 9.0 | 0.00 | 0.03 | 0.03 | 74 | 1007.0 |
| 20260506211557 | 66 | 145 | 1.0 | 8.0 | 0.00 | 0.03 | 0.03 | 75 | 1006.9 |
| 20260506204519 | 66 | 160 | 2.0 | 8.0 | 0.00 | 0.03 | 0.03 | 77 | 1006.6 |
| 20260506203032 | 65 | 237 | 2.0 | 9.0 | 0.00 | 0.03 | 0.03 | 77 | 1006.6 |
| 20260506201600 | 64 | 134 | 2.0 | 10.0 | 0.00 | 0.03 | 0.03 | 78 | 1006.8 |
| 20260506200311 | 65 | 221 | 5.0 | 13.0 | 0.00 | 0.03 | 0.03 | 79 | 1007.1 |
| 20260506194516 | 64 | 203 | 0.0 | 4.0 | 0.00 | 0.03 | 0.03 | 81 | 1007.2 |
| 20260506193017 | 64 | 234 | 0.0 | 5.0 | 0.00 | 0.03 | 0.03 | 82 | 1007.3 |
| 20260506191544 | 64 | 184 | 2.0 | 6.0 | 0.00 | 0.03 | 0.03 | 80 | 1007.6 |
| 20260506190055 | 64 | 212 | 2.0 | 11.0 | 0.00 | 0.03 | 0.03 | 80 | 1007.5 |
| 20260506184609 | 65 | 173 | 3.0 | 13.0 | 0.00 | 0.03 | 0.03 | 75 | 1007.7 |
| 20260506183005 | 67 | 253 | 10.0 | 17.0 | 0.00 | 0.03 | 0.03 | 68 | 1007.5 |
| 20260506181512 | 67 | 153 | 2.0 | 7.0 | 0.00 | 0.03 | 0.03 | 72 | 1007.6 |
| 20260506180318 | 67 | 225 | 3.0 | 10.0 | 0.01 | 0.03 | 0.03 | 72 | 1008.0 |
| 20260506180021 | 67 | 191 | 1.0 | 7.0 | 0.01 | 0.03 | 0.03 | 73 | 1007.8 |
| 20260506174544 | 67 | 111 | 2.0 | 6.0 | 0.02 | 0.03 | 0.03 | 73 | 1007.6 |
| 20260506173108 | 66 | 208 | 2.0 | 8.0 | 0.02 | 0.03 | 0.03 | 75 | 1007.7 |